TimeEST,TemperatureF,Dew PointF,Humidity,Sea Level PressureIn,VisibilityMPH,Wind Direction,Wind SpeedMPH,Gust SpeedMPH,PrecipitationIn,Events,Conditions,WindDirDegrees,DateUTC
12:55 AM,14.0,9.0,80,30.06,4.0,East,4.6,-,0.00,Snow,Light Snow,90,2013-01-26 05:55:00
1:40 AM,14.0,9.0,80,30.03,2.5,East,3.5,-,0.01,Snow,Light Snow,80,2013-01-26 06:40:00
1:55 AM,14.0,9.0,80,30.07,2.5,Calm,Calm,-,0.01,Snow,Light Snow,0,2013-01-26 06:55:00
2:32 AM,14.0,9.0,80,30.05,3.0,ENE,3.5,-,0.01,Snow,Light Snow,70,2013-01-26 07:32:00
2:55 AM,14.0,9.0,80,30.10,6.0,ENE,3.5,-,0.01,Snow,Light Snow,70,2013-01-26 07:55:00
3:55 AM,14.0,9.0,80,30.12,6.0,Calm,Calm,-,0.00,Snow,Light Snow,0,2013-01-26 08:55:00
4:55 AM,12.0,8.1,84,30.14,9.0,Calm,Calm,-,0.00,,Overcast,0,2013-01-26 09:55:00
5:55 AM,9.0,5.0,84,30.15,10.0,Calm,Calm,-,N/A,,Overcast,0,2013-01-26 10:55:00
6:55 AM,6.1,1.9,83,30.18,10.0,Calm,Calm,-,N/A,,Clear,0,2013-01-26 11:55:00
7:55 AM,7.0,1.0,77,30.21,10.0,NE,3.5,-,N/A,,Clear,40,2013-01-26 12:55:00
8:55 AM,8.1,3.9,83,30.23,8.0,Calm,Calm,-,N/A,,Clear,0,2013-01-26 13:55:00
9:55 AM,10.0,8.1,92,30.26,10.0,Calm,Calm,-,N/A,,Clear,0,2013-01-26 14:55:00
10:55 AM,16.0,7.0,68,30.30,10.0,NE,3.5,-,N/A,,Clear,50,2013-01-26 15:55:00
11:55 AM,18.0,8.1,65,30.32,10.0,East,4.6,-,N/A,,Clear,100,2013-01-26 16:55:00
12:55 PM,21.9,8.1,55,30.31,10.0,Calm,Calm,-,N/A,,Clear,0,2013-01-26 17:55:00
1:55 PM,23.0,9.0,55,30.32,10.0,Calm,Calm,-,N/A,,Clear,0,2013-01-26 18:55:00
2:55 PM,21.0,9.0,60,30.33,10.0,South,4.6,-,N/A,,Clear,190,2013-01-26 19:55:00
3:55 PM,19.9,8.1,60,30.34,10.0,SSW,5.8,-,N/A,,Clear,200,2013-01-26 20:55:00
4:55 PM,19.9,8.1,60,30.35,10.0,SSW,4.6,-,N/A,,Clear,210,2013-01-26 21:55:00
5:55 PM,15.1,7.0,70,30.38,10.0,SSW,4.6,-,N/A,,Clear,210,2013-01-26 22:55:00
6:55 PM,14.0,7.0,74,30.39,10.0,South,3.5,-,N/A,,Clear,180,2013-01-26 23:55:00
7:55 PM,12.9,5.0,71,30.39,10.0,Calm,Calm,-,N/A,,Clear,0,2013-01-27 00:55:00
8:28 PM,12.0,6.1,77,30.35,10.0,Calm,Calm,-,N/A,,Mostly Cloudy,0,2013-01-27 01:28:00
8:55 PM,12.9,7.0,77,30.39,10.0,ENE,4.6,-,N/A,,Mostly Cloudy,70,2013-01-27 01:55:00
9:55 PM,10.0,6.1,84,30.40,10.0,ENE,4.6,-,N/A,,Mostly Cloudy,70,2013-01-27 02:55:00
10:55 PM,10.0,6.1,84,30.40,8.0,East,4.6,-,N/A,,Overcast,90,2013-01-27 03:55:00
11:31 PM,10.9,6.1,81,30.36,10.0,East,4.6,-,N/A,,Overcast,80,2013-01-27 04:31:00
11:55 PM,10.9,6.1,81,30.41,10.0,East,4.6,-,N/A,,Overcast,80,2013-01-27 04:55:00